RYR64YK LIME-LICC

Flight info

Callsign RYR64YK
Flight time 1h 29m
Altitude 35000
Route LOGDI DCT OLNUK DCT LOMED DCT KUGIX DCT OST DCT AMANO DCT VAKOR DCT PELEN DCT UXUTA
Aircraft B738/M-SDE2E3FGHIRWXY/LB1

Departure

Time 2026-05-05 13:36
Airport Il Caravaggio International Airport (LIME)

Arrival

Time 2026-05-05 15:05
Airport Catania-Fontanarossa Airport (LICC)
Time Latitude Longitude Altitude Speed Heading
2026-05-05 13:04 45.66749 9.69564 786 ft 0 kts 194°
2026-05-05 13:29 45.66757 9.69566 786 ft 2 kts 194°
2026-05-05 13:29 45.66773 9.69572 786 ft 2 kts 194°
2026-05-05 13:29 45.66788 9.69578 786 ft 2 kts 194°
2026-05-05 13:30 45.66804 9.69585 786 ft 2 kts 218°
2026-05-05 13:30 45.66812 9.69600 785 ft 1 kts 278°
2026-05-05 13:30 45.66811 9.69608 785 ft 0 kts 286°
2026-05-05 13:32 45.66813 9.69602 785 ft 3 kts 288°
2026-05-05 13:32 45.66825 9.69558 786 ft 5 kts 289°
2026-05-05 13:32 45.66840 9.69482 786 ft 11 kts 285°
2026-05-05 13:32 45.66861 9.69379 787 ft 11 kts 287°
2026-05-05 13:33 45.66880 9.69280 788 ft 11 kts 284°
2026-05-05 13:33 45.66901 9.69153 789 ft 15 kts 281°
2026-05-05 13:33 45.66913 9.69028 790 ft 10 kts 285°
2026-05-05 13:33 45.66962 9.68982 790 ft 9 kts
2026-05-05 13:34 45.66979 9.68988 790 ft 0 kts 14°
2026-05-05 13:35 45.66980 9.68988 790 ft 1 kts 14°
2026-05-05 13:35 45.67009 9.68999 790 ft 8 kts 14°
2026-05-05 13:35 45.67063 9.69045 790 ft 11 kts 59°
2026-05-05 13:36 45.67061 9.69208 787 ft 24 kts 104°
2026-05-05 13:36 45.66947 9.69821 785 ft 106 kts 105°
2026-05-05 13:36 45.66690 9.71198 835 ft 175 kts 105°
2026-05-05 13:36 45.66363 9.73018 1527 ft 198 kts 104°
2026-05-05 13:37 45.65944 9.74912 2491 ft 202 kts 118°
2026-05-05 13:37 45.65030 9.76451 3392 ft 209 kts 141°
2026-05-05 13:37 45.63702 9.77388 4013 ft 220 kts 164°
2026-05-05 13:37 45.62153 9.77580 4631 ft 228 kts 183°
2026-05-05 13:38 45.60580 9.77052 5223 ft 238 kts 201°
2026-05-05 13:38 45.59173 9.75741 5800 ft 248 kts 223°
2026-05-05 13:38 45.58088 9.73776 6424 ft 257 kts 235°
2026-05-05 13:38 45.57084 9.71633 6941 ft 262 kts 234°
2026-05-05 13:39 45.56044 9.69491 7518 ft 263 kts 234°
2026-05-05 13:39 45.54966 9.67366 8094 ft 265 kts 230°
2026-05-05 13:39 45.53488 9.65850 8782 ft 266 kts 198°
2026-05-05 13:39 45.51666 9.65387 9421 ft 267 kts 189°
2026-05-05 13:40 45.49820 9.65023 10017 ft 268 kts 189°
2026-05-05 13:40 45.47965 9.64653 10569 ft 270 kts 189°
2026-05-05 13:40 45.46095 9.64963 11093 ft 278 kts 161°
2026-05-05 13:40 45.44331 9.66129 11691 ft 281 kts 158°
2026-05-05 13:41 45.42570 9.67359 12258 ft 284 kts 158°
2026-05-05 13:41 45.40787 9.68605 12837 ft 286 kts 159°
2026-05-05 13:41 45.38988 9.69852 13435 ft 289 kts 159°
2026-05-05 13:41 45.37164 9.71103 14011 ft 294 kts 160°
2026-05-05 13:42 45.35291 9.72377 14569 ft 303 kts 160°
2026-05-05 13:42 45.33386 9.73664 15119 ft 311 kts 160°
2026-05-05 13:42 45.31403 9.74999 15704 ft 320 kts 160°
2026-05-05 13:42 45.29361 9.76371 16268 ft 330 kts 160°
2026-05-05 13:43 45.27262 9.77778 16857 ft 338 kts 160°
2026-05-05 13:43 45.25117 9.79216 17447 ft 345 kts 160°
2026-05-05 13:43 45.22925 9.80684 18053 ft 351 kts 161°
2026-05-05 13:43 45.20699 9.82174 18625 ft 357 kts 161°
2026-05-05 13:44 45.18437 9.83686 19153 ft 362 kts 160°
2026-05-05 13:44 45.16148 9.85215 19721 ft 366 kts 160°
2026-05-05 13:44 45.13831 9.86761 20287 ft 370 kts 160°
2026-05-05 13:44 45.11494 9.88319 20846 ft 373 kts 160°
2026-05-05 13:45 45.09133 9.89892 21437 ft 376 kts 160°
2026-05-05 13:45 45.06755 9.91474 22031 ft 379 kts 160°
2026-05-05 13:45 45.04358 9.93068 22635 ft 381 kts 160°
2026-05-05 13:45 45.01957 9.94661 23252 ft 382 kts 160°
2026-05-05 13:46 44.99555 9.96317 23828 ft 385 kts 158°
2026-05-05 13:46 44.97234 9.98150 24350 ft 388 kts 155°
2026-05-05 13:46 44.94907 10.00094 24887 ft 388 kts 155°
2026-05-05 13:46 44.92591 10.02053 25434 ft 388 kts 155°
2026-05-05 13:47 44.90270 10.04006 26009 ft 388 kts 155°
2026-05-05 13:47 44.87949 10.05942 26578 ft 387 kts 155°
2026-05-05 13:47 44.85631 10.07861 27150 ft 386 kts 156°
2026-05-05 13:47 44.83324 10.09761 27758 ft 384 kts 156°
2026-05-05 13:48 44.81018 10.11656 28355 ft 382 kts 156°
2026-05-05 13:48 44.78735 10.13529 28962 ft 379 kts 156°
2026-05-05 13:48 44.76462 10.15392 29595 ft 376 kts 156°
2026-05-05 13:48 44.74211 10.17236 30204 ft 372 kts 156°
2026-05-05 13:49 44.71984 10.19059 30749 ft 369 kts 156°
2026-05-05 13:49 44.69846 10.21046 31291 ft 368 kts 150°
2026-05-05 13:49 44.67804 10.23208 31766 ft 368 kts 149°
2026-05-05 13:49 44.65782 10.25421 32127 ft 369 kts 149°
2026-05-05 13:50 44.63761 10.27641 32466 ft 370 kts 149°
2026-05-05 13:50 44.61717 10.29870 32719 ft 373 kts 149°
2026-05-05 13:50 44.59680 10.32077 32977 ft 376 kts 149°
2026-05-05 13:50 44.57597 10.34320 33253 ft 379 kts 149°
2026-05-05 13:51 44.55499 10.36572 33518 ft 381 kts 149°
2026-05-05 13:51 44.53387 10.38834 33790 ft 383 kts 149°
2026-05-05 13:51 44.51261 10.41107 34048 ft 385 kts 149°
2026-05-05 13:51 44.49126 10.43388 34286 ft 387 kts 149°
2026-05-05 13:52 44.46974 10.45685 34526 ft 389 kts 149°
2026-05-05 13:52 44.44817 10.47985 34750 ft 391 kts 149°
2026-05-05 13:52 44.42650 10.50295 34966 ft 393 kts 149°
2026-05-05 13:52 44.40447 10.52635 34942 ft 401 kts 149°
2026-05-05 13:53 44.36023 10.57648 34967 ft 419 kts 144°
2026-05-05 13:53 44.31675 10.63286 34970 ft 433 kts 143°
2026-05-05 13:54 44.27208 10.69116 34981 ft 445 kts 143°
2026-05-05 13:54 44.22600 10.75044 34983 ft 457 kts 143°
2026-05-05 13:55 44.17859 10.81096 34971 ft 467 kts 143°
2026-05-05 13:55 44.13019 10.87259 34956 ft 474 kts 143°
2026-05-05 13:56 44.08139 10.93466 34965 ft 477 kts 143°
2026-05-05 13:56 44.03204 10.99633 34971 ft 475 kts 147°
2026-05-05 13:57 43.97670 11.04383 34992 ft 466 kts 158°
2026-05-05 13:57 43.91966 11.08587 34993 ft 466 kts 158°
2026-05-05 13:58 43.86252 11.12846 34993 ft 466 kts 158°
2026-05-05 13:58 43.80557 11.17147 34992 ft 465 kts 158°
2026-05-05 13:59 43.72036 11.23586 34993 ft 465 kts 158°
2026-05-05 14:00 43.64458 11.29290 34987 ft 466 kts 158°
2026-05-05 14:00 43.57797 11.34292 34987 ft 467 kts 158°
2026-05-05 14:01 43.51975 11.38108 34998 ft 460 kts 165°
2026-05-05 14:01 43.45974 11.41142 34995 ft 459 kts 167°
2026-05-05 14:02 43.39965 11.44116 34994 ft 460 kts 167°
2026-05-05 14:02 43.33949 11.47150 34997 ft 461 kts 167°
2026-05-05 14:03 43.27928 11.50222 34999 ft 462 kts 166°
2026-05-05 14:03 43.21897 11.53305 35000 ft 463 kts 166°
2026-05-05 14:04 43.16871 11.55868 35000 ft 464 kts 166°
2026-05-05 14:04 43.10814 11.58950 34997 ft 465 kts 167°
2026-05-05 14:05 43.03758 11.62530 34990 ft 466 kts 167°
2026-05-05 14:05 42.97679 11.65607 35001 ft 466 kts 167°
2026-05-05 14:06 42.92578 11.68184 34992 ft 467 kts 167°
2026-05-05 14:06 42.86489 11.71254 35013 ft 468 kts 167°
2026-05-05 14:07 42.80413 11.74312 35025 ft 468 kts 167°
2026-05-05 14:07 42.74294 11.77384 35026 ft 469 kts 167°
2026-05-05 14:08 42.68163 11.80456 35025 ft 470 kts 167°
2026-05-05 14:08 42.62023 11.83526 35039 ft 471 kts 167°
2026-05-05 14:09 42.55864 11.86599 35032 ft 472 kts 167°
2026-05-05 14:09 42.49716 11.89662 35047 ft 471 kts 167°
2026-05-05 14:10 42.43566 11.92718 35055 ft 471 kts 167°
2026-05-05 14:10 42.37418 11.95766 35042 ft 471 kts 167°
2026-05-05 14:11 42.31273 11.98807 35042 ft 470 kts 167°
2026-05-05 14:11 42.25131 12.01839 35044 ft 470 kts 167°
2026-05-05 14:12 42.18980 12.04870 35051 ft 470 kts 167°
2026-05-05 14:12 42.12814 12.07902 35065 ft 470 kts 167°
2026-05-05 14:13 42.06703 12.10901 35065 ft 470 kts 167°
2026-05-05 14:13 42.00518 12.13930 35074 ft 470 kts 167°
2026-05-05 14:14 41.94397 12.16922 35074 ft 470 kts 167°
2026-05-05 14:14 41.88258 12.19917 35072 ft 469 kts 167°
2026-05-05 14:15 41.82118 12.22906 35075 ft 469 kts 167°
2026-05-05 14:15 41.76094 12.26432 35080 ft 476 kts 160°
2026-05-05 14:16 41.70206 12.30513 35072 ft 477 kts 159°
2026-05-05 14:16 41.64325 12.34614 35073 ft 477 kts 159°
2026-05-05 14:17 41.58430 12.38649 35078 ft 476 kts 159°
2026-05-05 14:17 41.52515 12.42649 35069 ft 476 kts 159°
2026-05-05 14:18 41.46600 12.46633 35067 ft 476 kts 159°
2026-05-05 14:18 41.40678 12.50614 35066 ft 477 kts 159°
2026-05-05 14:19 41.34758 12.54587 35061 ft 477 kts 159°
2026-05-05 14:19 41.28874 12.58530 35061 ft 477 kts 159°
2026-05-05 14:20 41.22947 12.62494 35060 ft 477 kts 159°
2026-05-05 14:20 41.17014 12.66453 35059 ft 477 kts 159°
2026-05-05 14:21 41.11076 12.70408 35052 ft 477 kts 159°
2026-05-05 14:21 41.05142 12.74352 35055 ft 477 kts 159°
2026-05-05 14:22 40.99202 12.78292 35066 ft 477 kts 159°
2026-05-05 14:22 40.93258 12.82227 35059 ft 477 kts 159°
2026-05-05 14:23 40.87318 12.86151 35061 ft 477 kts 159°
2026-05-05 14:23 40.81378 12.90067 35063 ft 477 kts 159°
2026-05-05 14:24 40.75436 12.93976 35059 ft 477 kts 159°
2026-05-05 14:24 40.69500 12.97874 35054 ft 476 kts 159°
2026-05-05 14:25 40.63574 13.01758 35058 ft 476 kts 159°
2026-05-05 14:25 40.57644 13.05635 35058 ft 475 kts 159°
2026-05-05 14:26 40.51720 13.09502 35063 ft 475 kts 159°
2026-05-05 14:26 40.45840 13.13333 35061 ft 475 kts 159°
2026-05-05 14:27 40.39918 13.17182 35064 ft 475 kts 159°
2026-05-05 14:27 40.33988 13.21030 35062 ft 475 kts 159°
2026-05-05 14:28 40.28087 13.24851 35063 ft 475 kts 159°
2026-05-05 14:28 40.22163 13.28680 35063 ft 475 kts 159°
2026-05-05 14:29 40.16229 13.32507 34940 ft 477 kts 159°
2026-05-05 14:29 40.13252 13.34424 34739 ft 477 kts 159°
2026-05-05 14:29 40.10281 13.36336 34520 ft 476 kts 159°
2026-05-05 14:30 40.07314 13.38244 34282 ft 475 kts 159°
2026-05-05 14:30 40.04347 13.40150 34038 ft 475 kts 159°
2026-05-05 14:30 40.01382 13.42052 33761 ft 475 kts 159°
2026-05-05 14:30 39.98418 13.43952 33504 ft 475 kts 159°
2026-05-05 14:31 39.95449 13.45853 33246 ft 475 kts 159°
2026-05-05 14:31 39.92487 13.47747 32976 ft 476 kts 159°
2026-05-05 14:31 39.89510 13.49650 32714 ft 476 kts 159°
2026-05-05 14:31 39.86533 13.51550 32460 ft 477 kts 159°
2026-05-05 14:32 39.83552 13.53451 32202 ft 478 kts 159°
2026-05-05 14:32 39.80564 13.55355 31946 ft 478 kts 159°
2026-05-05 14:32 39.77569 13.57261 31697 ft 479 kts 159°
2026-05-05 14:32 39.74572 13.59168 31451 ft 480 kts 159°
2026-05-05 14:33 39.71572 13.61074 31203 ft 481 kts 159°
2026-05-05 14:33 39.68560 13.62986 30960 ft 482 kts 159°
2026-05-05 14:33 39.65550 13.64895 30719 ft 482 kts 159°
2026-05-05 14:33 39.62534 13.66806 30477 ft 483 kts 159°
2026-05-05 14:34 39.59517 13.68716 30238 ft 483 kts 158°
2026-05-05 14:34 39.56536 13.70602 29980 ft 483 kts 158°
2026-05-05 14:34 39.53478 13.72534 29695 ft 483 kts 158°
2026-05-05 14:34 39.50456 13.74442 29411 ft 483 kts 158°
2026-05-05 14:35 39.47432 13.76349 29147 ft 484 kts 158°
2026-05-05 14:35 39.44403 13.78257 28878 ft 485 kts 158°
2026-05-05 14:35 39.41402 13.80144 28614 ft 486 kts 158°
2026-05-05 14:35 39.38358 13.82031 28352 ft 487 kts 159°
2026-05-05 14:36 39.35284 13.83916 28089 ft 488 kts 159°
2026-05-05 14:36 39.32218 13.85788 27827 ft 489 kts 159°
2026-05-05 14:36 39.29142 13.87664 27567 ft 489 kts 159°
2026-05-05 14:36 39.26063 13.89544 27313 ft 490 kts 159°
2026-05-05 14:37 39.22979 13.91429 27063 ft 490 kts 158°
2026-05-05 14:37 39.19896 13.93312 26808 ft 491 kts 158°
2026-05-05 14:37 39.16808 13.95198 26561 ft 491 kts 158°
2026-05-05 14:37 39.13720 13.97083 26311 ft 491 kts 158°
2026-05-05 14:38 39.10627 13.98968 26060 ft 492 kts 158°
2026-05-05 14:38 39.07535 14.00851 25822 ft 492 kts 158°
2026-05-05 14:38 39.04448 14.02729 25587 ft 492 kts 158°
2026-05-05 14:38 39.01350 14.04612 25345 ft 491 kts 158°
2026-05-05 14:39 38.98264 14.06486 25103 ft 490 kts 158°
2026-05-05 14:39 38.95192 14.08351 24870 ft 488 kts 158°
2026-05-05 14:39 38.92129 14.10207 24631 ft 485 kts 158°
2026-05-05 14:39 38.89084 14.12051 24398 ft 483 kts 158°
2026-05-05 14:40 38.86052 14.13885 24184 ft 480 kts 158°
2026-05-05 14:40 38.83034 14.15709 24118 ft 480 kts 158°
2026-05-05 14:40 38.80012 14.17530 24084 ft 479 kts 158°
2026-05-05 14:40 38.77003 14.19342 24081 ft 477 kts 158°
2026-05-05 14:41 38.73995 14.21152 24006 ft 478 kts 158°
2026-05-05 14:41 38.70986 14.22960 23734 ft 476 kts 158°
2026-05-05 14:41 38.68002 14.24754 23454 ft 472 kts 158°
2026-05-05 14:41 38.65032 14.26538 23161 ft 471 kts 158°
2026-05-05 14:42 38.62074 14.28313 22877 ft 469 kts 158°
2026-05-05 14:42 38.59123 14.30081 22586 ft 468 kts 158°
2026-05-05 14:42 38.56181 14.31843 22284 ft 466 kts 158°
2026-05-05 14:42 38.53245 14.33599 21996 ft 465 kts 158°
2026-05-05 14:43 38.50322 14.35346 21723 ft 463 kts 158°
2026-05-05 14:43 38.47409 14.37086 21404 ft 463 kts 158°
2026-05-05 14:43 38.44492 14.38825 21013 ft 463 kts 158°
2026-05-05 14:43 38.41578 14.40563 20644 ft 461 kts 158°
2026-05-05 14:44 38.38681 14.42289 20278 ft 459 kts 158°
2026-05-05 14:44 38.35796 14.44006 19917 ft 456 kts 158°
2026-05-05 14:44 38.32931 14.45710 19557 ft 453 kts 158°
2026-05-05 14:44 38.30087 14.47400 19204 ft 450 kts 158°
2026-05-05 14:45 38.27259 14.49078 18856 ft 447 kts 158°
2026-05-05 14:45 38.24449 14.50745 18508 ft 444 kts 158°
2026-05-05 14:45 38.21701 14.52375 18131 ft 437 kts 158°
2026-05-05 14:45 38.18980 14.53989 17727 ft 426 kts 158°
2026-05-05 14:46 38.16332 14.55559 17326 ft 415 kts 158°
2026-05-05 14:46 38.13751 14.57086 16943 ft 405 kts 158°
2026-05-05 14:46 38.11224 14.58579 16552 ft 396 kts 158°
2026-05-05 14:46 38.08748 14.60041 16175 ft 390 kts 158°
2026-05-05 14:47 38.06301 14.61483 15805 ft 385 kts 159°
2026-05-05 14:47 38.03892 14.62902 15445 ft 380 kts 159°
2026-05-05 14:47 38.01503 14.64309 15088 ft 377 kts 159°
2026-05-05 14:47 37.99144 14.65698 14710 ft 368 kts 159°
2026-05-05 14:48 37.96863 14.67043 14317 ft 355 kts 158°
2026-05-05 14:48 37.94662 14.68339 13937 ft 343 kts 159°
2026-05-05 14:48 37.92457 14.69286 13487 ft 329 kts 175°
2026-05-05 14:48 37.90225 14.69612 13111 ft 319 kts 178°
2026-05-05 14:49 37.88046 14.69809 12658 ft 307 kts 188°
2026-05-05 14:49 37.86056 14.69093 12257 ft 293 kts 212°
2026-05-05 14:49 37.84470 14.67571 11911 ft 282 kts 229°
2026-05-05 14:49 37.83379 14.65565 11672 ft 275 kts 244°
2026-05-05 14:50 37.82538 14.63396 11452 ft 275 kts 246°
2026-05-05 14:50 37.81727 14.61196 11184 ft 277 kts 246°
2026-05-05 14:50 37.80906 14.58968 10818 ft 281 kts 246°
2026-05-05 14:50 37.80071 14.56727 10467 ft 282 kts 245°
2026-05-05 14:51 37.79228 14.54484 10121 ft 283 kts 245°
2026-05-05 14:51 37.78372 14.52228 9760 ft 285 kts 245°
2026-05-05 14:51 37.77494 14.49971 9356 ft 287 kts 240°
2026-05-05 14:51 37.76083 14.48237 8945 ft 285 kts 208°
2026-05-05 14:52 37.74869 14.47650 8731 ft 281 kts 196°
2026-05-05 14:52 37.72954 14.47322 8426 ft 275 kts 186°
2026-05-05 14:52 37.71055 14.47201 8103 ft 270 kts 184°
2026-05-05 14:52 37.69180 14.47112 7864 ft 269 kts 184°
2026-05-05 14:53 37.67309 14.47022 7625 ft 269 kts 184°
2026-05-05 14:53 37.65437 14.46923 7390 ft 269 kts 183°
2026-05-05 14:53 37.63560 14.46816 7150 ft 271 kts 184°
2026-05-05 14:53 37.61672 14.46702 6887 ft 271 kts 184°
2026-05-05 14:54 37.59795 14.46585 6638 ft 269 kts 183°
2026-05-05 14:54 37.57934 14.46466 6399 ft 267 kts 183°
2026-05-05 14:54 37.56087 14.46348 6145 ft 264 kts 183°
2026-05-05 14:54 37.54256 14.46231 5888 ft 263 kts 182°
2026-05-05 14:55 37.52435 14.46114 5639 ft 261 kts 182°
2026-05-05 14:55 37.50626 14.45995 5393 ft 259 kts 182°
2026-05-05 14:55 37.48824 14.45879 5157 ft 259 kts 182°
2026-05-05 14:55 37.47072 14.45765 5064 ft 253 kts 182°
2026-05-05 14:56 37.45293 14.45655 5013 ft 254 kts 180°
2026-05-05 14:56 37.43624 14.46103 4994 ft 248 kts 151°
2026-05-05 14:56 37.42367 14.47536 5007 ft 245 kts 121°
2026-05-05 14:56 37.41803 14.49533 5018 ft 241 kts 96°
2026-05-05 14:57 37.41845 14.51590 5016 ft 230 kts 84°
2026-05-05 14:57 37.42028 14.53568 5017 ft 227 kts 83°
2026-05-05 14:57 37.42221 14.55534 5008 ft 225 kts 83°
2026-05-05 14:57 37.42415 14.57472 5007 ft 224 kts 83°
2026-05-05 14:58 37.42598 14.59432 4852 ft 228 kts 83°
2026-05-05 14:58 37.42779 14.61424 4605 ft 231 kts 84°
2026-05-05 14:58 37.42960 14.63429 4347 ft 227 kts 84°
2026-05-05 14:58 37.43129 14.65319 4101 ft 217 kts 84°
2026-05-05 14:59 37.43292 14.67160 3836 ft 207 kts 84°
2026-05-05 14:59 37.43450 14.68953 3612 ft 206 kts 84°
2026-05-05 14:59 37.43608 14.70738 3382 ft 205 kts 85°
2026-05-05 14:59 37.43765 14.72530 3131 ft 206 kts 84°
2026-05-05 15:00 37.43923 14.74305 3081 ft 204 kts 84°
2026-05-05 15:00 37.44023 14.75489 3012 ft 206 kts 84°
2026-05-05 15:00 37.44224 14.77834 2999 ft 199 kts 85°
2026-05-05 15:00 37.44368 14.79538 2993 ft 194 kts 85°
2026-05-05 15:01 37.44513 14.81222 3014 ft 197 kts 84°
2026-05-05 15:01 37.44669 14.82957 3019 ft 201 kts 85°
2026-05-05 15:01 37.44830 14.84683 3028 ft 194 kts 83°
2026-05-05 15:01 37.44995 14.86327 2979 ft 184 kts 84°
2026-05-05 15:02 37.45132 14.87897 2775 ft 182 kts 85°
2026-05-05 15:02 37.45265 14.89498 2532 ft 184 kts 85°
2026-05-05 15:02 37.45399 14.91100 2311 ft 183 kts 85°
2026-05-05 15:02 37.45513 14.92650 2075 ft 170 kts 86°
2026-05-05 15:03 37.45642 14.94107 1813 ft 163 kts 84°
2026-05-05 15:03 37.45753 14.95436 1633 ft 149 kts 85°
2026-05-05 15:03 37.45855 14.96698 1453 ft 144 kts 86°
2026-05-05 15:03 37.45976 14.97941 1206 ft 142 kts 86°
2026-05-05 15:04 37.46085 14.99168 1059 ft 137 kts 83°
2026-05-05 15:04 37.46181 15.00364 854 ft 140 kts 83°
2026-05-05 15:04 37.46284 15.01612 669 ft 144 kts 85°
2026-05-05 15:04 37.46373 15.02886 507 ft 149 kts 82°
2026-05-05 15:05 37.46577 15.05385 83 ft 139 kts 84°
2026-05-05 15:05 37.46669 15.06513 38 ft 107 kts 84°
2026-05-05 15:05 37.46723 15.07163 31 ft 43 kts 83°
2026-05-05 15:06 37.46746 15.07419 31 ft 27 kts 82°
2026-05-05 15:06 37.46786 15.07638 30 ft 22 kts 67°
2026-05-05 15:06 37.46829 15.07722 31 ft 8 kts 55°
2026-05-05 15:06 37.46846 15.07753 30 ft 4 kts 55°
2026-05-05 15:07 37.46851 15.07763 30 ft 0 kts 55°
2026-05-05 15:07 37.46852 15.07764 27 ft 1 kts 55°
2026-05-05 15:07 37.46890 15.07805 28 ft 13 kts 17°
2026-05-05 15:08 37.46936 15.07717 30 ft 15 kts 263°
2026-05-05 15:08 37.46924 15.07579 31 ft 18 kts 265°
2026-05-05 15:08 37.46910 15.07414 31 ft 19 kts 264°
2026-05-05 15:08 37.46896 15.07257 33 ft 17 kts 264°
2026-05-05 15:09 37.46883 15.07113 33 ft 16 kts 264°
2026-05-05 15:09 37.46872 15.06969 30 ft 17 kts 264°
2026-05-05 15:09 37.46860 15.06828 30 ft 11 kts 264°
2026-05-05 15:09 37.46854 15.06751 32 ft 9 kts 264°
2026-05-05 15:10 37.46847 15.06673 33 ft 9 kts 264°
2026-05-05 15:10 37.46859 15.06605 31 ft 9 kts 309°
2026-05-05 15:10 37.46917 15.06568 30 ft 9 kts
2026-05-05 15:10 37.46932 15.06574 29 ft 2 kts 17°
2026-05-05 15:11 37.46939 15.06577 29 ft 0 kts 18°